Location: Oberwangen
(47.4286°N, 8.9679°E)
Time: 09:25:40
(UTC+00:00)

Cosmos 1408 - Pass Details

Date: 20 June 2021
Orbit: 466 x 492 km, 82.6° (Epoch: 04 August)

Event Time Altitude Azimuth Distance (km) Brightness Sun altitude
Exits shadow 23:53:06 54° 162° (SSE) 599 2.6 -18.9°
Maximum altitude 23:53:47 73° 98° (E) 517 2.6 -18.9°
Drops below altitude 10° 23:57:30 10° 13° (NNE) 1,696 6.6 -18.8°
Sets 23:59:38 0° 11° (NNE) 2,586 8.0 -18.7°
